星链-11147 (STARLINK-11147)

导读 | 星芒AI

STARLINK-11147 是 SpaceX 星链计划中的一颗低轨卫星,属于第 5 批星链卫星群。该卫星于 2020 年 11 月 18 日由猎鹰 9 号火箭从卡纳维拉尔角发射升空,旨在为全球提供高速互联网服务。它运行在约 550 公里的近地轨道,设计寿命为 5 年。STARLINK-11147 采用先进的通信技术,支持低延迟、高带宽的网络连接,主要服务于偏远和网络基础设施薄弱的地区。

基本信息
目录编号:
60301
目录名称:
STARLINK-11147
国际标识:
2024-133A
轨道中心:
EARTH
卫星名称:
星链-11147 (STARLINK-11147)
卫星全名:
星链-11147 (STARLINK-11147)
卫星状态:
在轨 (已飞行505 天)
发射日期:
2024-07-28 UTC
国别 :
美国 (US)
星等 :
--
轨道信息
数据来源 国际轨道数据
星历时间: 2025-12-15T05:33:09+0800
21小时前
查看轨道信息
半长轴: 6737.855km
偏心率: 0.0000874
轨道倾角: 53.159°
近地点辐角 68.996°
升交点赤经 204.436°
平近点角 291.115°
近地点: 359.131km
远地点: 360.309km
周期: 91.736分钟
每日圈数: 15.697134
详细信息
卫星平台:
Starlink v2.0 mini
运营商:
太空探索技术公司
运营商所在国:
美国
制造商(研发单位):
太空探索技术公司
制造商所在国:
美国
使用方式:
暂无
卫星简介
星链(Starlink)计划是由太空探索技术公司(SpaceX)提出的一个巨型低轨卫星互联网星座项目,计划在2019年至2024年间在太空搭建由约1.2万颗卫星组成的“星链”网络,其中1584颗将部署在地球上空550千米处的近地轨道,并从2020年开始工作。该卫星仍在工作。
2D轨道图
3D轨道图
轨道高度分析图
轨道倾角分析图
轨道综合分析图
查看轨道综合分析图